owner,sensor,date,latitude,longitude,vertical_datum,direction_of_sea_water_velocity,sea_water_speed,upward_sea_water_velocity,qcFlag 
TABS,ioos:station:wmo:42044:1,2012-11-01T00:00:00Z,26.1914,-97.0507,2.0,222.0977806,7.681959385,-99999.0,'11133222,11111222,99999999' 
TABS,ioos:station:wmo:42044:1,2012-11-01T00:30:00Z,26.1914,-97.0507,2.0,212.6336772,9.179074027,-99999.0,'11133222,11111222,99999999' 
TABS,ioos:station:wmo:42044:1,2012-11-01T01:00:00Z,26.1914,-97.0507,2.0,211.0556382,3.198452751,-99999.0,'11133222,11111222,99999999' 
TABS,ioos:station:wmo:42044:1,2012-11-01T01:30:00Z,26.1914,-97.0507,2.0,197.1636156,4.134114174,-99999.0,'11133222,11111222,99999999' 
TABS,ioos:station:wmo:42044:1,2012-11-01T02:00:00Z,26.1914,-97.0507,2.0,151.5721839,2.751817581,-99999.0,'11133222,11111222,99999999' 
TABS,ioos:station:wmo:42044:1,2012-11-01T02:30:00Z,26.1914,-97.0507,2.0,113.4183957,3.421870833,-99999.0,'11133222,11111222,99999999' 
TABS,ioos:station:wmo:42044:1,2012-11-01T03:00:00Z,26.1914,-97.0507,2.0,158.0511418,1.444714505,-99999.0,'11133222,11111222,99999999' 
TABS,ioos:station:wmo:42044:1,2012-11-01T03:30:00Z,26.1914,-97.0507,2.0,112.6534264,5.244616287,-99999.0,'11133222,11111222,99999999' 
TABS,ioos:station:wmo:42044:1,2012-11-01T04:00:00Z,26.1914,-97.0507,2.0,116.5649891,0.760263112,-99999.0,'11133222,11111222,99999999' 
TABS,ioos:station:wmo:42044:1,2012-11-01T04:30:00Z,26.1914,-97.0507,2.0,137.391071,3.220139749,-99999.0,'11133222,11111222,99999999' 
TABS,ioos:station:wmo:42044:1,2012-11-01T05:00:00Z,26.1914,-97.0507,2.0,107.5373972,2.422601907,-99999.0,'11133222,11111222,99999999' 
TABS,ioos:station:wmo:42044:1,2012-11-01T05:30:00Z,26.1914,-97.0507,2.0,98.76904175,1.902235527,-99999.0,'11133222,11111222,99999999' 
TABS,ioos:station:wmo:42044:1,2012-11-01T06:00:00Z,26.1914,-97.0507,2.0,127.069447,2.870017422,-99999.0,'11133222,11111222,99999999' 
TABS,ioos:station:wmo:42044:1,2012-11-01T06:30:00Z,26.1914,-97.0507,2.0,118.1519295,3.391179736,-99999.0,'11133222,11111222,99999999' 
TABS,ioos:station:wmo:42044:1,2012-11-01T07:00:00Z,26.1914,-97.0507,2.0,121.3463784,3.594690529,-99999.0,'11133222,11111222,99999999' 
TABS,ioos:station:wmo:42044:1,2012-11-01T07:30:00Z,26.1914,-97.0507,2.0,73.8278788,4.164804917,-99999.0,'11133222,11111222,99999999' 
TABS,ioos:station:wmo:42044:1,2012-11-01T08:00:00Z,26.1914,-97.0507,2.0,93.4011669,3.876828601,-99999.0,'11133222,11111222,99999999' 
TABS,ioos:station:wmo:42044:1,2012-11-01T08:30:00Z,26.1914,-97.0507,2.0,68.19864149,1.938659331,-99999.0,'11133222,11111222,99999999' 
TABS,ioos:station:wmo:42044:1,2012-11-01T09:00:00Z,26.1914,-97.0507,2.0,102.6525269,3.515366268,-99999.0,'11133222,11111222,99999999' 
TABS,ioos:station:wmo:42044:1,2012-11-01T09:30:00Z,26.1914,-97.0507,2.0,77.64282915,5.794238518,-99999.0,'11133222,11111222,99999999' 
TABS,ioos:station:wmo:42044:1,2012-11-01T10:00:00Z,26.1914,-97.0507,2.0,114.0107429,3.61260294,-99999.0,'11133222,11111222,99999999' 
TABS,ioos:station:wmo:42044:1,2012-11-01T10:30:00Z,26.1914,-97.0507,2.0,121.7235288,1.939819579,-99999.0,'11133222,11111222,99999999' 
TABS,ioos:station:wmo:42044:1,2012-11-01T11:00:00Z,26.1914,-97.0507,2.0,135.5231281,3.097256851,-99999.0,'11133222,11111222,99999999' 
TABS,ioos:station:wmo:42044:1,2012-11-01T11:30:00Z,26.1914,-97.0507,2.0,107.415188,3.90919429,-99999.0,'11133222,11111222,99999999' 
TABS,ioos:station:wmo:42044:1,2012-11-01T12:00:00Z,26.1914,-97.0507,2.0,105.5594588,3.467059273,-99999.0,'11133222,11111222,99999999' 
TABS,ioos:station:wmo:42044:1,2012-11-01T12:30:00Z,26.1914,-97.0507,2.0,129.1842818,3.070504844,-99999.0,'11133222,11111222,99999999' 
TABS,ioos:station:wmo:42044:1,2012-11-01T13:00:00Z,26.1914,-97.0507,2.0,177.7971965,1.300961183,-99999.0,'11133222,11111222,99999999' 
TABS,ioos:station:wmo:42044:1,2012-11-01T13:30:00Z,26.1914,-97.0507,2.0,315.734835,1.10317723,-99999.0,'11133222,11111222,99999999' 
TABS,ioos:station:wmo:42044:1,2012-11-01T14:00:00Z,26.1914,-97.0507,2.0,82.84093632,2.086264605,-99999.0,'11133222,11111222,99999999' 
TABS,ioos:station:wmo:42044:1,2012-11-01T14:30:00Z,26.1914,-97.0507,2.0,354.7720308,1.536391877,-99999.0,'11133222,11111222,99999999' 
TABS,ioos:station:wmo:42044:1,2012-11-01T15:00:00Z,26.1914,-97.0507,2.0,340.8998098,2.994878962,-99999.0,'11133222,11111222,99999999' 
TABS,ioos:station:wmo:42044:1,2012-11-01T15:30:00Z,26.1914,-97.0507,2.0,24.84684553,2.237073982,-99999.0,'11133222,11111222,99999999' 
TABS,ioos:station:wmo:42044:1,2012-11-01T16:00:00Z,26.1914,-97.0507,2.0,35.66804921,5.625237773,-99999.0,'11133222,11111222,99999999' 
TABS,ioos:station:wmo:42044:1,2012-11-01T16:30:00Z,26.1914,-97.0507,2.0,34.73695792,9.564627541,-99999.0,'11133222,11111222,99999999' 
TABS,ioos:station:wmo:42044:1,2012-11-01T17:00:00Z,26.1914,-97.0507,2.0,37.23495737,9.420191081,-99999.0,'11133222,11111222,99999999' 
TABS,ioos:station:wmo:42044:1,2012-11-01T17:30:00Z,26.1914,-97.0507,2.0,34.44273814,11.19204182,-99999.0,'11111222,11111222,99999999' 
TABS,ioos:station:wmo:42044:1,2012-11-01T18:00:00Z,26.1914,-97.0507,2.0,35.66365042,11.11446355,-99999.0,'11111222,11111222,99999999' 
TABS,ioos:station:wmo:42044:1,2012-11-01T18:30:00Z,26.1914,-97.0507,2.0,30.55656822,12.78554262,-99999.0,'11111222,11111222,99999999' 
TABS,ioos:station:wmo:42044:1,2012-11-01T19:00:00Z,26.1914,-97.0507,2.0,33.27300527,14.85526506,-99999.0,'11111222,11111222,99999999' 
TABS,ioos:station:wmo:42044:1,2012-11-01T19:30:00Z,26.1914,-97.0507,2.0,35.66397593,14.25315754,-99999.0,'11111222,11111222,99999999' 
TABS,ioos:station:wmo:42044:1,2012-11-01T20:00:00Z,26.1914,-97.0507,2.0,28.13769552,14.504127,-99999.0,'11111222,11111222,99999999' 
TABS,ioos:station:wmo:42044:1,2012-11-01T20:30:00Z,26.1914,-97.0507,2.0,27.68554948,15.32446736,-99999.0,'11111222,11111222,99999999' 
TABS,ioos:station:wmo:42044:1,2012-11-01T21:00:00Z,26.1914,-97.0507,2.0,26.19002291,14.34244749,-99999.0,'11111222,11111222,99999999' 
TABS,ioos:station:wmo:42044:1,2012-11-01T21:30:00Z,26.1914,-97.0507,2.0,30.7982608,14.23787203,-99999.0,'11111222,11111222,99999999' 
TABS,ioos:station:wmo:42044:1,2012-11-01T22:00:00Z,26.1914,-97.0507,2.0,35.67734176,14.79720582,-99999.0,'11111222,11111222,99999999' 
TABS,ioos:station:wmo:42044:1,2012-11-01T22:30:00Z,26.1914,-97.0507,2.0,41.39966567,13.62455504,-99999.0,'11111222,11111222,99999999' 
TABS,ioos:station:wmo:42044:1,2012-11-01T23:00:00Z,26.1914,-97.0507,2.0,35.43344161,13.4022125,-99999.0,'11111222,11111222,99999999' 
TABS,ioos:station:wmo:42044:1,2012-11-01T23:30:00Z,26.1914,-97.0507,2.0,40.38886463,10.81839637,-99999.0,'11111222,11111222,99999999' 
TABS,ioos:station:wmo:42044:1,2012-11-02T00:00:00Z,26.1914,-97.0507,2.0,46.62738475,7.470060241,-99999.0,'11133222,11111222,99999999' 
TABS,ioos:station:wmo:42044:1,2012-11-02T00:30:00Z,26.1914,-97.0507,2.0,43.58476605,10.87862124,-99999.0,'11111222,11111222,99999999' 
TABS,ioos:station:wmo:42044:1,2012-11-02T01:00:00Z,26.1914,-97.0507,2.0,35.69498702,12.28858413,-99999.0,'11111222,11111222,99999999' 
TABS,ioos:station:wmo:42044:1,2012-11-02T01:30:00Z,26.1914,-97.0507,2.0,32.95620262,11.69126597,-99999.0,'11111222,11111222,99999999' 
TABS,ioos:station:wmo:42044:1,2012-11-02T02:00:00Z,26.1914,-97.0507,2.0,29.79148126,12.23727094,-99999.0,'11111222,11111222,99999999' 
TABS,ioos:station:wmo:42044:1,2012-11-02T02:30:00Z,26.1914,-97.0507,2.0,28.71394663,13.7167416,-99999.0,'11111222,11111222,99999999' 
TABS,ioos:station:wmo:42044:1,2012-11-02T03:00:00Z,26.1914,-97.0507,2.0,27.3247175,12.48282821,-99999.0,'11111222,11111222,99999999' 
TABS,ioos:station:wmo:42044:1,2012-11-02T03:30:00Z,26.1914,-97.0507,2.0,27.50110114,11.49939564,-99999.0,'11111222,11111222,99999999' 
TABS,ioos:station:wmo:42044:1,2012-11-02T04:00:00Z,26.1914,-97.0507,2.0,26.37163388,13.23759797,-99999.0,'11111222,11111222,99999999' 
TABS,ioos:station:wmo:42044:1,2012-11-02T04:30:00Z,26.1914,-97.0507,2.0,25.50646827,10.89151046,-99999.0,'11111222,11111222,99999999' 
TABS,ioos:station:wmo:42044:1,2012-11-02T05:00:00Z,26.1914,-97.0507,2.0,22.30514956,11.1978614,-99999.0,'11111222,11111222,99999999' 
TABS,ioos:station:wmo:42044:1,2012-11-02T05:30:00Z,26.1914,-97.0507,2.0,35.91331951,9.223285749,-99999.0,'11133222,11111222,99999999' 
TABS,ioos:station:wmo:42044:1,2012-11-02T06:00:00Z,26.1914,-97.0507,2.0,18.6792456,9.648196723,-99999.0,'11133222,11111222,99999999' 
TABS,ioos:station:wmo:42044:1,2012-11-02T06:30:00Z,26.1914,-97.0507,2.0,38.18109977,10.83883758,-99999.0,'11111222,11111222,99999999' 
TABS,ioos:station:wmo:42044:1,2012-11-02T07:00:00Z,26.1914,-97.0507,2.0,19.25372157,17.0432538,-99999.0,'11111222,11111222,99999999' 
TABS,ioos:station:wmo:42044:1,2012-11-02T07:30:00Z,26.1914,-97.0507,2.0,17.4765912,12.2871681,-99999.0,'11111222,11111222,99999999' 
TABS,ioos:station:wmo:42044:1,2012-11-02T08:00:00Z,26.1914,-97.0507,2.0,17.81545636,10.81878459,-99999.0,'11111222,11111222,99999999' 
TABS,ioos:station:wmo:42044:1,2012-11-02T08:30:00Z,26.1914,-97.0507,2.0,28.65329165,11.78295803,-99999.0,'11111222,11111222,99999999' 
TABS,ioos:station:wmo:42044:1,2012-11-02T09:00:00Z,26.1914,-97.0507,2.0,29.18630578,18.18931829,-99999.0,'11111222,11111222,99999999' 
TABS,ioos:station:wmo:42044:1,2012-11-02T09:30:00Z,26.1914,-97.0507,2.0,29.21209546,16.26909954,-99999.0,'11111222,11111222,99999999' 
TABS,ioos:station:wmo:42044:1,2012-11-02T10:00:00Z,26.1914,-97.0507,2.0,30.72072536,16.97165284,-99999.0,'11111222,11111222,99999999' 
TABS,ioos:station:wmo:42044:1,2012-11-02T10:30:00Z,26.1914,-97.0507,2.0,30.42328158,17.81263596,-99999.0,'11111222,11111222,99999999' 
TABS,ioos:station:wmo:42044:1,2012-11-02T11:00:00Z,26.1914,-97.0507,2.0,35.93813812,14.14187046,-99999.0,'11111222,11111222,99999999' 
TABS,ioos:station:wmo:42044:1,2012-11-02T11:30:00Z,26.1914,-97.0507,2.0,38.94283953,15.81434792,-99999.0,'11111222,11111222,99999999' 
TABS,ioos:station:wmo:42044:1,2012-11-02T12:00:00Z,26.1914,-97.0507,2.0,40.3167088,15.9348235,-99999.0,'11111222,11111222,99999999' 
TABS,ioos:station:wmo:42044:1,2012-11-02T12:30:00Z,26.1914,-97.0507,2.0,31.96588501,12.25887842,-99999.0,'11111222,11111222,99999999' 
TABS,ioos:station:wmo:42044:1,2012-11-02T13:00:00Z,26.1914,-97.0507,2.0,41.18272244,16.25001231,-99999.0,'11111222,11111222,99999999' 
TABS,ioos:station:wmo:42044:1,2012-11-02T13:30:00Z,26.1914,-97.0507,2.0,38.57211447,15.28474403,-99999.0,'11111222,11111222,99999999' 
TABS,ioos:station:wmo:42044:1,2012-11-02T14:00:00Z,26.1914,-97.0507,2.0,29.01863213,12.32756261,-99999.0,'11111222,11111222,99999999' 
TABS,ioos:station:wmo:42044:1,2012-11-02T14:30:00Z,26.1914,-97.0507,2.0,30.49997237,13.55569253,-99999.0,'11111222,11111222,99999999' 
TABS,ioos:station:wmo:42044:1,2012-11-02T15:00:00Z,26.1914,-97.0507,2.0,37.03388853,11.88804862,-99999.0,'11111222,11111222,99999999' 
TABS,ioos:station:wmo:42044:1,2012-11-02T15:30:00Z,26.1914,-97.0507,2.0,30.53153227,14.99969333,-99999.0,'11111222,11111222,99999999' 
TABS,ioos:station:wmo:42044:1,2012-11-02T16:00:00Z,26.1914,-97.0507,2.0,33.67391278,9.757176846,-99999.0,'11133222,11111222,99999999' 
TABS,ioos:station:wmo:42044:1,2012-11-02T16:30:00Z,26.1914,-97.0507,2.0,20.3111814,13.13681849,-99999.0,'11111222,11111222,99999999' 
TABS,ioos:station:wmo:42044:1,2012-11-02T17:00:00Z,26.1914,-97.0507,2.0,22.81260705,14.41777375,-99999.0,'11111222,11111222,99999999' 
TABS,ioos:station:wmo:42044:1,2012-11-02T17:30:00Z,26.1914,-97.0507,2.0,25.14828165,18.9900237,-99999.0,'11111222,11111222,99999999' 
TABS,ioos:station:wmo:42044:1,2012-11-02T18:00:00Z,26.1914,-97.0507,2.0,20.30817606,19.73683359,-99999.0,'11111222,11111222,99999999' 
TABS,ioos:station:wmo:42044:1,2012-11-02T18:30:00Z,26.1914,-97.0507,2.0,18.43511617,19.82748093,-99999.0,'11111222,11111222,99999999' 
TABS,ioos:station:wmo:42044:1,2012-11-02T19:00:00Z,26.1914,-97.0507,2.0,19.34783723,20.64596813,-99999.0,'11111222,11111222,99999999' 
TABS,ioos:station:wmo:42044:1,2012-11-02T19:30:00Z,26.1914,-97.0507,2.0,24.80160366,22.81422802,-99999.0,'11111222,11111222,99999999' 
TABS,ioos:station:wmo:42044:1,2012-11-02T20:00:00Z,26.1914,-97.0507,2.0,26.85908629,20.05332142,-99999.0,'11111222,11111222,99999999' 
TABS,ioos:station:wmo:42044:1,2012-11-02T20:30:00Z,26.1914,-97.0507,2.0,26.64248676,19.89207883,-99999.0,'11111222,11111222,99999999' 
TABS,ioos:station:wmo:42044:1,2012-11-02T21:00:00Z,26.1914,-97.0507,2.0,34.58683248,20.38218094,-99999.0,'11111222,11111222,99999999' 
TABS,ioos:station:wmo:42044:1,2012-11-02T21:30:00Z,26.1914,-97.0507,2.0,27.74064718,20.71034766,-99999.0,'11111222,11111222,99999999' 
TABS,ioos:station:wmo:42044:1,2012-11-02T22:00:00Z,26.1914,-97.0507,2.0,27.43267756,20.38185958,-99999.0,'11111222,11111222,99999999' 
TABS,ioos:station:wmo:42044:1,2012-11-02T22:30:00Z,26.1914,-97.0507,2.0,32.85329213,19.55804182,-99999.0,'11111222,11111222,99999999' 
TABS,ioos:station:wmo:42044:1,2012-11-02T23:00:00Z,26.1914,-97.0507,2.0,32.10639134,18.6644716,-99999.0,'11111222,11111222,99999999' 
TABS,ioos:station:wmo:42044:1,2012-11-02T23:30:00Z,26.1914,-97.0507,2.0,27.61194656,12.72982325,-99999.0,'11111222,11111222,99999999' 
TABS,ioos:station:wmo:42044:1,2012-11-03T00:00:00Z,26.1914,-97.0507,2.0,21.5149829,14.47884664,-99999.0,'11111222,11111222,99999999' 
TABS,ioos:station:wmo:42044:1,2012-11-03T00:30:00Z,26.1914,-97.0507,2.0,22.80093939,14.37314858,-99999.0,'11111222,11111222,99999999' 
TABS,ioos:station:wmo:42044:1,2012-11-03T01:00:00Z,26.1914,-97.0507,2.0,17.11917198,12.94345394,-99999.0,'11111222,11111222,99999999' 
TABS,ioos:station:wmo:42044:1,2012-11-03T01:30:00Z,26.1914,-97.0507,2.0,21.54340469,12.36372112,-99999.0,'11111222,11111222,99999999' 
TABS,ioos:station:wmo:42044:1,2012-11-03T02:00:00Z,26.1914,-97.0507,2.0,33.24311528,11.72949274,-99999.0,'11111222,11111222,99999999' 
TABS,ioos:station:wmo:42044:1,2012-11-03T02:30:00Z,26.1914,-97.0507,2.0,26.28317097,11.81105414,-99999.0,'11111222,11111222,99999999' 
TABS,ioos:station:wmo:42044:1,2012-11-03T03:00:00Z,26.1914,-97.0507,2.0,29.22774274,13.18915084,-99999.0,'11111222,11111222,99999999' 
TABS,ioos:station:wmo:42044:1,2012-11-03T03:30:00Z,26.1914,-97.0507,2.0,27.44962465,13.03782957,-99999.0,'11111222,11111222,99999999' 
TABS,ioos:station:wmo:42044:1,2012-11-03T04:00:00Z,26.1914,-97.0507,2.0,21.50024893,12.00536963,-99999.0,'11111222,11111222,99999999' 
TABS,ioos:station:wmo:42044:1,2012-11-03T04:30:00Z,26.1914,-97.0507,2.0,35.36863435,14.96113632,-99999.0,'11111222,11111222,99999999' 
TABS,ioos:station:wmo:42044:1,2012-11-03T05:00:00Z,26.1914,-97.0507,2.0,27.22219662,17.16071385,-99999.0,'11111222,11111222,99999999' 
TABS,ioos:station:wmo:42044:1,2012-11-03T05:30:00Z,26.1914,-97.0507,2.0,20.89321305,16.51596198,-99999.0,'11111222,11111222,99999999' 
TABS,ioos:station:wmo:42044:1,2012-11-03T06:00:00Z,26.1914,-97.0507,2.0,26.05016128,16.41787441,-99999.0,'11111222,11111222,99999999' 
TABS,ioos:station:wmo:42044:1,2012-11-03T06:30:00Z,26.1914,-97.0507,2.0,25.23594596,14.07312687,-99999.0,'11111222,11111222,99999999' 
TABS,ioos:station:wmo:42044:1,2012-11-03T07:00:00Z,26.1914,-97.0507,2.0,14.8307945,15.74450063,-99999.0,'11111222,11111222,99999999' 
TABS,ioos:station:wmo:42044:1,2012-11-03T07:30:00Z,26.1914,-97.0507,2.0,26.44508303,17.06570831,-99999.0,'11111222,11111222,99999999' 
TABS,ioos:station:wmo:42044:1,2012-11-03T08:00:00Z,26.1914,-97.0507,2.0,21.21850883,16.60573696,-99999.0,'11111222,11111222,99999999' 
TABS,ioos:station:wmo:42044:1,2012-11-03T08:30:00Z,26.1914,-97.0507,2.0,20.29132601,14.93695083,-99999.0,'11111222,11111222,99999999' 
TABS,ioos:station:wmo:42044:1,2012-11-03T09:00:00Z,26.1914,-97.0507,2.0,14.61148527,17.64050453,-99999.0,'11111222,11111222,99999999' 
TABS,ioos:station:wmo:42044:1,2012-11-03T09:30:00Z,26.1914,-97.0507,2.0,36.45945967,16.18841561,-99999.0,'11111222,11111222,99999999' 
TABS,ioos:station:wmo:42044:1,2012-11-03T10:00:00Z,26.1914,-97.0507,2.0,27.02965896,15.44726513,-99999.0,'11111222,11111222,99999999' 
TABS,ioos:station:wmo:42044:1,2012-11-03T10:30:00Z,26.1914,-97.0507,2.0,30.88396209,12.29303055,-99999.0,'11111222,11111222,99999999' 
TABS,ioos:station:wmo:42044:1,2012-11-03T11:00:00Z,26.1914,-97.0507,2.0,23.89917435,13.74881086,-99999.0,'11111222,11111222,99999999' 
TABS,ioos:station:wmo:42044:1,2012-11-03T11:30:00Z,26.1914,-97.0507,2.0,32.73762779,15.18146897,-99999.0,'11111222,11111222,99999999' 
TABS,ioos:station:wmo:42044:1,2012-11-03T12:00:00Z,26.1914,-97.0507,2.0,32.53416594,16.08403245,-99999.0,'11111222,11111222,99999999' 
TABS,ioos:station:wmo:42044:1,2012-11-03T12:30:00Z,26.1914,-97.0507,2.0,20.85100418,14.10364492,-99999.0,'11111222,11111222,99999999' 
TABS,ioos:station:wmo:42044:1,2012-11-03T13:00:00Z,26.1914,-97.0507,2.0,17.52817742,11.78728552,-99999.0,'11111222,11111222,99999999' 
TABS,ioos:station:wmo:42044:1,2012-11-03T13:30:00Z,26.1914,-97.0507,2.0,31.24132396,16.29255658,-99999.0,'11111222,11111222,99999999' 
TABS,ioos:station:wmo:42044:1,2012-11-03T14:00:00Z,26.1914,-97.0507,2.0,26.96189893,13.56431347,-99999.0,'11111222,11111222,99999999' 
TABS,ioos:station:wmo:42044:1,2012-11-03T14:30:00Z,26.1914,-97.0507,2.0,30.79893637,14.29618131,-99999.0,'11111222,11111222,99999999' 
TABS,ioos:station:wmo:42044:1,2012-11-03T15:00:00Z,26.1914,-97.0507,2.0,29.55676794,13.96762686,-99999.0,'11111222,11111222,99999999' 
TABS,ioos:station:wmo:42044:1,2012-11-03T15:30:00Z,26.1914,-97.0507,2.0,31.40195406,10.76699587,-99999.0,'11111222,11111222,99999999' 
TABS,ioos:station:wmo:42044:1,2012-11-03T16:00:00Z,26.1914,-97.0507,2.0,21.17273957,13.70514137,-99999.0,'11111222,11111222,99999999' 
TABS,ioos:station:wmo:42044:1,2012-11-03T16:30:00Z,26.1914,-97.0507,2.0,23.34782439,13.62571466,-99999.0,'11111222,11111222,99999999' 
TABS,ioos:station:wmo:42044:1,2012-11-03T17:00:00Z,26.1914,-97.0507,2.0,26.26212367,18.59987366,-99999.0,'11111222,11111222,99999999' 
TABS,ioos:station:wmo:42044:1,2012-11-03T17:30:00Z,26.1914,-97.0507,2.0,14.62569635,15.56433423,-99999.0,'11111222,11111222,99999999' 
TABS,ioos:station:wmo:42044:1,2012-11-03T18:00:00Z,26.1914,-97.0507,2.0,4.959213057,13.88196312,-99999.0,'11111222,11111222,99999999' 
TABS,ioos:station:wmo:42044:1,2012-11-03T18:30:00Z,26.1914,-97.0507,2.0,351.0276048,10.38710739,-99999.0,'11111222,11111222,99999999' 
TABS,ioos:station:wmo:42044:1,2012-11-03T19:00:00Z,26.1914,-97.0507,2.0,27.45688854,12.64425957,-99999.0,'11111222,11111222,99999999' 
TABS,ioos:station:wmo:42044:1,2012-11-03T19:30:00Z,26.1914,-97.0507,2.0,32.90257154,10.08817625,-99999.0,'11111222,11111222,99999999' 
TABS,ioos:station:wmo:42044:1,2012-11-03T20:00:00Z,26.1914,-97.0507,2.0,31.14283106,13.72852869,-99999.0,'11111222,11111222,99999999' 
TABS,ioos:station:wmo:42044:1,2012-11-03T20:30:00Z,26.1914,-97.0507,2.0,38.12666331,16.78003576,-99999.0,'11111222,11111222,99999999' 
TABS,ioos:station:wmo:42044:1,2012-11-03T21:00:00Z,26.1914,-97.0507,2.0,28.82798403,22.0872135,-99999.0,'11111222,11111222,99999999' 
TABS,ioos:station:wmo:42044:1,2012-11-03T21:30:00Z,26.1914,-97.0507,2.0,31.53624795,25.237276,-99999.0,'11111222,11111222,99999999' 
TABS,ioos:station:wmo:42044:1,2012-11-03T22:00:00Z,26.1914,-97.0507,2.0,32.15586129,24.23799497,-99999.0,'11111222,11111222,99999999' 
TABS,ioos:station:wmo:42044:1,2012-11-03T22:30:00Z,26.1914,-97.0507,2.0,31.95718032,25.12831869,-99999.0,'11111222,11111222,99999999' 
TABS,ioos:station:wmo:42044:1,2012-11-03T23:00:00Z,26.1914,-97.0507,2.0,31.03612028,28.569972,-99999.0,'11111222,11111222,99999999' 
TABS,ioos:station:wmo:42044:1,2012-11-03T23:30:00Z,26.1914,-97.0507,2.0,26.17613571,25.0266498,-99999.0,'11111222,11111222,99999999' 
TABS,ioos:station:wmo:42044:1,2012-11-04T00:00:00Z,26.1914,-97.0507,2.0,29.65000463,25.42963625,-99999.0,'11111222,11111222,99999999' 
TABS,ioos:station:wmo:42044:1,2012-11-04T00:30:00Z,26.1914,-97.0507,2.0,33.16869464,22.2443993,-99999.0,'11111222,11111222,99999999' 
TABS,ioos:station:wmo:42044:1,2012-11-04T01:00:00Z,26.1914,-97.0507,2.0,28.2320627,20.29419621,-99999.0,'11111222,11111222,99999999' 
TABS,ioos:station:wmo:42044:1,2012-11-04T01:30:00Z,26.1914,-97.0507,2.0,35.14349453,18.91858874,-99999.0,'11111222,11111222,99999999' 
TABS,ioos:station:wmo:42044:1,2012-11-04T02:00:00Z,26.1914,-97.0507,2.0,38.19961422,18.27291985,-99999.0,'11111222,11111222,99999999' 
TABS,ioos:station:wmo:42044:1,2012-11-04T02:30:00Z,26.1914,-97.0507,2.0,23.13936423,17.73688248,-99999.0,'11111222,11111222,99999999' 
TABS,ioos:station:wmo:42044:1,2012-11-04T03:00:00Z,26.1914,-97.0507,2.0,30.39932321,14.44602714,-99999.0,'11111222,11111222,99999999' 
TABS,ioos:station:wmo:42044:1,2012-11-04T03:30:00Z,26.1914,-97.0507,2.0,36.5775609,16.84821949,-99999.0,'11111222,11111222,99999999' 
TABS,ioos:station:wmo:42044:1,2012-11-04T04:00:00Z,26.1914,-97.0507,2.0,28.76530617,19.80380014,-99999.0,'11111222,11111222,99999999' 
TABS,ioos:station:wmo:42044:1,2012-11-04T04:30:00Z,26.1914,-97.0507,2.0,34.15401096,17.4736287,-99999.0,'11111222,11111222,99999999' 
TABS,ioos:station:wmo:42044:1,2012-11-04T05:00:00Z,26.1914,-97.0507,2.0,33.64989983,15.77290398,-99999.0,'11111222,11111222,99999999' 
TABS,ioos:station:wmo:42044:1,2012-11-04T05:30:00Z,26.1914,-97.0507,2.0,26.47400079,11.23849189,-99999.0,'11111222,11111222,99999999' 
TABS,ioos:station:wmo:42044:1,2012-11-04T06:00:00Z,26.1914,-97.0507,2.0,15.8159278,13.35560182,-99999.0,'11111222,11111222,99999999' 
TABS,ioos:station:wmo:42044:1,2012-11-04T06:30:00Z,26.1914,-97.0507,2.0,32.97809844,15.17499588,-99999.0,'11111222,11111222,99999999' 
TABS,ioos:station:wmo:42044:1,2012-11-04T07:00:00Z,26.1914,-97.0507,2.0,27.23473418,13.39496174,-99999.0,'11111222,11111222,99999999' 
TABS,ioos:station:wmo:42044:1,2012-11-04T07:30:00Z,26.1914,-97.0507,2.0,22.67573046,11.07615908,-99999.0,'11111222,11111222,99999999' 
TABS,ioos:station:wmo:42044:1,2012-11-04T08:00:00Z,26.1914,-97.0507,2.0,29.21399908,12.58014308,-99999.0,'11111222,11111222,99999999' 
TABS,ioos:station:wmo:42044:1,2012-11-04T08:30:00Z,26.1914,-97.0507,2.0,33.52179315,8.492496688,-99999.0,'11133222,11111222,99999999' 
TABS,ioos:station:wmo:42044:1,2012-11-04T09:00:00Z,26.1914,-97.0507,2.0,32.01925055,8.845682563,-99999.0,'11133222,11111222,99999999' 
TABS,ioos:station:wmo:42044:1,2012-11-04T09:30:00Z,26.1914,-97.0507,2.0,17.07045366,11.68476786,-99999.0,'11111222,11111222,99999999' 
TABS,ioos:station:wmo:42044:1,2012-11-04T10:00:00Z,26.1914,-97.0507,2.0,30.32805938,8.654351507,-99999.0,'11133222,11111222,99999999' 
TABS,ioos:station:wmo:42044:1,2012-11-04T10:30:00Z,26.1914,-97.0507,2.0,26.76141671,6.529356783,-99999.0,'11133222,11111222,99999999' 
TABS,ioos:station:wmo:42044:1,2012-11-04T11:00:00Z,26.1914,-97.0507,2.0,24.18929257,7.443560976,-99999.0,'11133222,11111222,99999999' 
TABS,ioos:station:wmo:42044:1,2012-11-04T11:30:00Z,26.1914,-97.0507,2.0,45.45328168,6.258090763,-99999.0,'11133222,11111222,99999999' 
TABS,ioos:station:wmo:42044:1,2012-11-04T12:00:00Z,26.1914,-97.0507,2.0,24.07669145,10.71192326,-99999.0,'11111222,11111222,99999999' 
TABS,ioos:station:wmo:42044:1,2012-11-04T12:30:00Z,26.1914,-97.0507,2.0,50.65576773,9.542897883,-99999.0,'11133222,11111222,99999999' 
TABS,ioos:station:wmo:42044:1,2012-11-04T13:00:00Z,26.1914,-97.0507,2.0,24.47588015,8.954697091,-99999.0,'11133222,11111222,99999999' 
TABS,ioos:station:wmo:42044:1,2012-11-04T13:30:00Z,26.1914,-97.0507,2.0,33.83112836,10.14827079,-99999.0,'11111222,11111222,99999999' 
TABS,ioos:station:wmo:42044:1,2012-11-04T14:00:00Z,26.1914,-97.0507,2.0,33.50680486,10.39790844,-99999.0,'11111222,11111222,99999999' 
TABS,ioos:station:wmo:42044:1,2012-11-04T14:30:00Z,26.1914,-97.0507,2.0,23.9795714,10.30982541,-99999.0,'11111222,11111222,99999999' 
TABS,ioos:station:wmo:42044:1,2012-11-04T15:00:00Z,26.1914,-97.0507,2.0,42.68170961,10.48790732,-99999.0,'11111222,11111222,99999999' 
TABS,ioos:station:wmo:42044:1,2012-11-04T15:30:00Z,26.1914,-97.0507,2.0,29.51368168,9.215855902,-99999.0,'11133222,11111222,99999999' 
TABS,ioos:station:wmo:42044:1,2012-11-04T16:00:00Z,26.1914,-97.0507,2.0,41.3111497,10.7703389,-99999.0,'11111222,11111222,99999999' 